Showing default

EXPLORER 30, 1738

Orbit data source: Space-Track

EXPLORER 30, 1738 is a payload satellite owned by NRL (US) in LEO that was launched on Fri, 19 Nov 1965 UTC via an SCOUT X-4 launch vehicle from the Wallops Island (WLPIS). Payload-class satellites include a variety of spacecraft equipped with specific instruments for various scientific and technological missions. These include communications satellites like Starlink; space stations such as the ISS; scientific satellites like the Hubble; Earth observation satellites from companies like Planet Labs, Umbra, and HawkEye 360; GPS; miniature CubeSats for education and research; and military/defense satellites.

Loading next visibility...
Identifier
1738, 1965-093A
Orbit
LEO
Country
Flag of USUS
Related business
Manufacturer
NRL
Mission
Spacecraft
Bus & Motor
NRL 24", Unknown motor
Mass
57 kg wet, 57 kg dry
Launch date (UTC)
1965-11-19 (61 years ago)
Launch vehicle
SCOUT X-4
Launch site
Wallops Island (WLPIS)
Object type
Payload
Rocket body
Debris
Shape & HBR
SPHERE, 1.1 m
Radar Cross Section
Medium (>0.1 m² and <1 m²)

Expand to show TLE details & history
Last TLE update: 18 hours ago

TLE from 18 hours ago
0 EXPLORER 30
1 01738U 65093A   26258.14449926 -.00000024  00000-0  36979-4 0  9999
2 01738  59.7070 298.8288 0137163 116.2530 245.2679 14.41869283169369
Epoch: 2026-09-15T03:28Z
TLE epoch observation values (Epoch: 2026-09-15T03:28:04.736Z)
Latitude
-0°
Longitude
-107.30559°
Altitude
795.861 km
Speed
7.434 km/s
True Right ascension
19h 55m 18s
True Declination
0° 00' 00"
Sunlit
Object was in full shadow at epoch
Visualization orbit readout
Latitude
Unknown
Longitude
Unknown
Altitude
Unknown
Speed
Unknown
Apparent Right ascension
Unknown
Apparent Declination
Unknown
Sunlit
N/A
Visualization observer readout
Local Sidereal Time
14:30:23
Azimuth
Unknown
Elevation
Unknown
Doppler factor
Unknown
Orbital elements
Apogee altitude
849.396 km
Perigee altitude
653.809 km
Semi-major axis
7,129.739 km
Eccentricity
0.01372
Inclination
59.707°
RAAN
298.8288°
Arg. of periapsis
116.253°
True anomaly
243.85062°
Mean anomaly
245.2679°
Eccentric anomaly
244.55823°
Mean motion
3.60523 °/min
Orbital period
99.85 mins
BSTAR
0.000036979
Loading maneuver chart data...
Computing Atmospheric mass density...
Loading historical data...
Loading historical data...
Loading historical data...
Loading historical data...
Loading historical data...
Loading historical data...
Loading historical data...
Other satellites on launch #93 in the year 1965 (1965-11-19 UTC)

Documentation

Showing up to 5 results
|